Location: Songkhla
(7.2000°N, 100.6000°E)
Time: 09:41:25
(UTC+07:00)

KAITUO 1B - Visible Passes

Search period start: 05 August 2021 00:00
Search period end: 15 August 2021 00:00
Orbit: 491 x 510 km, 97.4° (Epoch: 04 August)

Date Brightness Start Highest point End Pass type
(mag) Time Alt. Az. Time Alt. Az. Time Alt. Az.
08 Aug ? 05:42:29 10° ENE 05:44:47 16° E 05:47:02 10° SE visible
08 Aug ? 19:10:28 10° SW 19:12:16 13° W 19:14:06 10° WNW visible
13 Aug ? 05:38:59 10° ENE 05:40:52 13° E 05:42:44 10° SE visible
13 Aug ? 19:06:07 10° SW 19:08:20 16° W 19:10:35 10° WNW visible
